Flag for Canada Weather past 2 weeks in Timmins, Ontario, Canada

Now
1 °F

Scattered clouds.


Feels Like: -15 °F
Forecast: -21 / 10 °F
Wind: 10 mph from South

Location: Timmins

Current Time: Jan 26, 2015 at 12:21:13 PM

Latest Report: Jan 26, 2015 at 12:00 PM


Visibility: 15 mi

Pressure: 30.14 "Hg

Humidity: 65%

Dew point: -8 °F

Location of TimminsLocation

Historic Weather in Timmins — Graph

°F

Timmins temperature yesterday

Maximum temperature yesterday: 1 °F (at 3:00 PM)
Minimum temperature yesterday: -18 °F (at 10:00 PM)
Average temperature yesterday: -9 °F

Past Weeks' High & Low Weather Summary

 TemperatureHumidityPressure
High30 °F (Jan 23, 8:00 PM)100% (Jan 18, 4:00 AM)30.75 "Hg (Jan 18, 4:00 AM)
Low-29 °F (Jan 20, 6:00 AM)58% (Jan 16, 1:00 PM)29.39 "Hg (Jan 18, 3:00 AM)
Average2 °F81%30.04 "Hg
* Reported Jan 11 11:00 AM — Jan 26 11:00 AM, Timmins, Weather by CustomWeather, © 2014

Note: Actual official high and low records may vary slightly from our data, if they occured in-between our weather recording intervals... More about our weather records

Advertising

Timmins weather history for previous 24 hours

 ConditionsComfort  
Time TempWeatherWind HumidityBarometerVisibility
11:00 AM
Jan 26
-4 °FScattered clouds.8 mph77%30.16 "Hg15 mi
10:00 AM-11 °FSnow flurries. Partly sunny.6 mph84%30.14 "Hg15 mi
9:00 AM-17 °FSnow flurries. Scattered clouds.3 mph76%30.14 "Hg15 mi
8:00 AM-22 °FPassing clouds.3 mph75%30.13 "Hg15 mi
7:00 AM-22 °FPassing clouds.5 mph75%30.12 "Hg15 mi
6:00 AM-22 °FPassing clouds.6 mph83%30.12 "Hg15 mi
5:00 AM-22 °FPassing clouds.No wind75%30.12 "Hg15 mi
4:00 AM-20 °FPassing clouds.3 mph83%30.12 "Hg15 mi
3:00 AM-22 °FClear.6 mph75%30.13 "Hg15 mi
2:00 AM-22 °FClear.5 mph83%30.13 "Hg15 mi
1:00 AM-20 °FClear.3 mph83%30.15 "Hg15 mi
12:00 AM-20 °FClear.2 mph75%30.15 "Hg15 mi
11:00 PM
Jan 25
-18 °FClear.3 mph75%30.16 "Hg15 mi
10:00 PM-18 °FClear.3 mph83%30.18 "Hg15 mi
9:00 PM-15 °FClear.3 mph76%30.19 "Hg15 mi
8:00 PM-13 °FClear.3 mph76%30.19 "Hg15 mi
7:00 PM-11 °FClear.2 mph84%30.17 "Hg15 mi
6:00 PM-6 °FClear.3 mph77%30.16 "Hg15 mi
5:00 PM-2 °FSunny.8 mph65%30.14 "Hg15 mi
4:00 PM1 °FSunny.9 mph60%30.11 "Hg15 mi
3:00 PM1 °FPassing clouds.10 mph60%30.11 "Hg15 mi
2:00 PM0 °FPassing clouds.10 mph60%30.10 "Hg15 mi
1:00 PM-2 °FPassing clouds.9 mph59%30.10 "Hg15 mi
12:00 PM-6 °FPassing clouds.7 mph64%30.11 "Hg15 mi
Weather by CustomWeather, © 2014

See weather overviewHow to use our weather pages